DLH8HX EDDF-LOWI

Flight info

Callsign DLH8HX
Flight time 0h 52m
Altitude 29000
Route SULUS7S/18 SULUS Z650 NIKUS M736 RDG/N0458F280 M736 DOSEL/N0452F270 M736 TULSI TULSI3A
Aircraft A319/M-SDE3FGHIRWY/LB1

Departure

Time 2026-05-06 20:00
Airport Frankfurt Main Airport (EDDF)

Arrival

Time 2026-05-06 20:52
Airport Innsbruck Airport (LOWI)
Time Latitude Longitude Altitude Speed Heading
2026-05-06 19:28 50.02952 8.57757 356 ft 0 kts 25°
2026-05-06 19:45 50.02936 8.57745 362 ft 4 kts 25°
2026-05-06 19:45 50.02912 8.57728 359 ft 2 kts 24°
2026-05-06 19:46 50.02892 8.57721 360 ft 4 kts 315°
2026-05-06 19:46 50.02882 8.57757 356 ft 4 kts 274°
2026-05-06 19:46 50.02882 8.57747 358 ft 4 kts 272°
2026-05-06 19:46 50.02883 8.57705 358 ft 4 kts 272°
2026-05-06 19:47 50.02883 8.57663 353 ft 4 kts 272°
2026-05-06 19:47 50.02884 8.57632 353 ft 0 kts 272°
2026-05-06 19:53 50.02884 8.57630 353 ft 1 kts 272°
2026-05-06 19:53 50.02886 8.57576 353 ft 8 kts 276°
2026-05-06 19:53 50.02908 8.57491 359 ft 9 kts 295°
2026-05-06 19:53 50.02947 8.57362 359 ft 17 kts 295°
2026-05-06 19:54 50.02996 8.57197 356 ft 17 kts 294°
2026-05-06 19:54 50.03046 8.57027 358 ft 17 kts 295°
2026-05-06 19:54 50.03135 8.56911 353 ft 18 kts 340°
2026-05-06 19:54 50.03214 8.56865 354 ft 0 kts 339°
2026-05-06 19:55 50.03229 8.56857 358 ft 7 kts 340°
2026-05-06 19:55 50.03271 8.56772 353 ft 13 kts 264°
2026-05-06 19:55 50.03231 8.56602 353 ft 20 kts 250°
2026-05-06 19:56 50.03178 8.56379 348 ft 22 kts 250°
2026-05-06 19:56 50.03122 8.56145 346 ft 24 kts 249°
2026-05-06 19:56 50.03063 8.55900 346 ft 24 kts 249°
2026-05-06 19:56 50.03004 8.55650 347 ft 24 kts 249°
2026-05-06 19:57 50.02944 8.55404 352 ft 25 kts 249°
2026-05-06 19:57 50.02884 8.55154 347 ft 25 kts 249°
2026-05-06 19:57 50.02823 8.54898 348 ft 25 kts 249°
2026-05-06 19:57 50.02761 8.54638 340 ft 26 kts 250°
2026-05-06 19:58 50.02698 8.54376 339 ft 26 kts 250°
2026-05-06 19:58 50.02644 8.54104 337 ft 27 kts 249°
2026-05-06 19:58 50.02575 8.53827 334 ft 28 kts 250°
2026-05-06 19:58 50.02511 8.53552 333 ft 26 kts 250°
2026-05-06 19:59 50.02449 8.53287 334 ft 26 kts 250°
2026-05-06 19:59 50.02382 8.53017 333 ft 27 kts 249°
2026-05-06 19:59 50.02318 8.52745 333 ft 27 kts 249°
2026-05-06 19:59 50.02270 8.52606 334 ft 11 kts 198°
2026-05-06 20:00 50.02154 8.52606 335 ft 38 kts 179°
2026-05-06 20:00 50.01605 8.52612 330 ft 115 kts 179°
2026-05-06 20:00 50.00594 8.52626 367 ft 168 kts 181°
2026-05-06 20:00 49.99431 8.52631 1048 ft 165 kts 181°
2026-05-06 20:01 49.98273 8.52633 1757 ft 170 kts 182°
2026-05-06 20:01 49.97039 8.53024 2136 ft 196 kts 156°
2026-05-06 20:01 49.95956 8.54513 2493 ft 224 kts 122°
2026-05-06 20:01 49.95177 8.56680 3168 ft 237 kts 119°
2026-05-06 20:02 49.94389 8.58974 3806 ft 244 kts 114°
2026-05-06 20:02 49.94015 8.61555 4088 ft 255 kts 94°
2026-05-06 20:02 49.93918 8.64422 4701 ft 274 kts 94°
2026-05-06 20:02 49.93622 8.67382 5566 ft 280 kts 110°
2026-05-06 20:03 49.92736 8.70079 6509 ft 281 kts 129°
2026-05-06 20:03 49.91371 8.72239 7426 ft 282 kts 142°
2026-05-06 20:03 49.90111 8.74626 8307 ft 293 kts 116°
2026-05-06 20:03 49.89791 8.77767 9215 ft 301 kts 83°
2026-05-06 20:04 49.90276 8.80945 10112 ft 306 kts 76°
2026-05-06 20:04 49.90743 8.84246 10476 ft 329 kts 79°
2026-05-06 20:04 49.91147 8.87896 10739 ft 354 kts 82°
2026-05-06 20:04 49.91513 8.91782 10835 ft 370 kts 83°
2026-05-06 20:05 49.91862 8.95769 10842 ft 374 kts 83°
2026-05-06 20:05 49.92212 8.99785 10992 ft 380 kts 83°
2026-05-06 20:05 49.92575 9.03847 11857 ft 380 kts 83°
2026-05-06 20:05 49.92949 9.07924 12692 ft 382 kts 82°
2026-05-06 20:06 49.93332 9.11976 13476 ft 385 kts 82°
2026-05-06 20:06 49.93730 9.16113 14169 ft 389 kts 82°
2026-05-06 20:06 49.94131 9.20283 14855 ft 392 kts 82°
2026-05-06 20:06 49.94532 9.24489 15530 ft 395 kts 82°
2026-05-06 20:07 49.94934 9.28739 16197 ft 399 kts 82°
2026-05-06 20:07 49.95334 9.33021 16861 ft 402 kts 82°
2026-05-06 20:07 49.95734 9.37337 17517 ft 406 kts 82°
2026-05-06 20:07 49.96136 9.41694 18156 ft 410 kts 83°
2026-05-06 20:08 49.96538 9.46054 18699 ft 413 kts 83°
2026-05-06 20:08 49.96947 9.50497 19245 ft 416 kts 83°
2026-05-06 20:08 49.97358 9.54972 19778 ft 420 kts 83°
2026-05-06 20:08 49.97771 9.59485 20299 ft 423 kts 83°
2026-05-06 20:09 49.98184 9.64033 20816 ft 426 kts 83°
2026-05-06 20:09 49.98595 9.68605 21310 ft 429 kts 84°
2026-05-06 20:09 49.99008 9.73219 21802 ft 432 kts 84°
2026-05-06 20:09 49.99423 9.77855 22287 ft 435 kts 84°
2026-05-06 20:10 49.99837 9.82464 22750 ft 438 kts 84°
2026-05-06 20:10 50.00259 9.87170 23202 ft 441 kts 84°
2026-05-06 20:10 50.00683 9.91915 23611 ft 444 kts 85°
2026-05-06 20:10 50.01104 9.96691 24003 ft 447 kts 85°
2026-05-06 20:11 50.01524 10.01503 24395 ft 449 kts 85°
2026-05-06 20:11 50.01942 10.06333 24787 ft 451 kts 85°
2026-05-06 20:11 50.02360 10.11178 25169 ft 454 kts 86°
2026-05-06 20:11 50.02779 10.16061 25542 ft 456 kts 86°
2026-05-06 20:12 50.03200 10.20969 25909 ft 458 kts 86°
2026-05-06 20:12 50.03620 10.25892 26264 ft 460 kts 86°
2026-05-06 20:12 50.03899 10.29170 26504 ft 462 kts 86°
2026-05-06 20:12 50.04319 10.34131 26852 ft 464 kts 86°
2026-05-06 20:13 50.04875 10.40742 27300 ft 467 kts 86°
2026-05-06 20:13 50.05293 10.45771 27638 ft 469 kts 87°
2026-05-06 20:13 50.05710 10.50815 27963 ft 471 kts 87°
2026-05-06 20:13 50.05991 10.54231 28176 ft 473 kts 87°
2026-05-06 20:14 50.06408 10.59311 28587 ft 473 kts 88°
2026-05-06 20:14 50.06827 10.64380 29067 ft 471 kts 88°
2026-05-06 20:14 50.07077 10.69437 29541 ft 465 kts 96°
2026-05-06 20:14 50.06858 10.74410 29999 ft 457 kts 104°
2026-05-06 20:15 50.06189 10.79204 30372 ft 450 kts 112°
2026-05-06 20:15 50.05216 10.83833 30719 ft 449 kts 114°
2026-05-06 20:15 50.04244 10.88389 31047 ft 450 kts 114°
2026-05-06 20:15 50.03258 10.93024 31391 ft 452 kts 114°
2026-05-06 20:16 50.02275 10.97668 31722 ft 453 kts 114°
2026-05-06 20:16 50.01291 11.02318 32054 ft 454 kts 114°
2026-05-06 20:16 50.00301 11.06987 32397 ft 455 kts 114°
2026-05-06 20:16 49.99307 11.11661 32741 ft 455 kts 114°
2026-05-06 20:17 49.98308 11.16347 33071 ft 457 kts 114°
2026-05-06 20:17 49.97309 11.21029 33404 ft 458 kts 114°
2026-05-06 20:17 49.96303 11.25741 33745 ft 459 kts 114°
2026-05-06 20:17 49.95302 11.30450 34041 ft 460 kts 114°
2026-05-06 20:18 49.94300 11.35175 34335 ft 460 kts 114°
2026-05-06 20:18 49.93296 11.39904 34643 ft 461 kts 114°
2026-05-06 20:18 49.92332 11.44593 34929 ft 462 kts 112°
2026-05-06 20:18 49.91421 11.49380 35206 ft 464 kts 111°
2026-05-06 20:19 49.90549 11.54210 35484 ft 464 kts 110°
2026-05-06 20:19 49.89695 11.59054 35757 ft 465 kts 110°
2026-05-06 20:19 49.88842 11.63887 36024 ft 465 kts 110°
2026-05-06 20:19 49.88085 11.68781 36286 ft 469 kts 104°
2026-05-06 20:20 49.87633 11.73807 36536 ft 471 kts 102°
2026-05-06 20:20 49.87193 11.78832 36759 ft 471 kts 102°
2026-05-06 20:20 49.86053 11.88791 36823 ft 465 kts 113°
2026-05-06 20:21 49.84783 11.93361 36824 ft 457 kts 124°
2026-05-06 20:21 49.83050 11.97351 36826 ft 450 kts 134°
2026-05-06 20:21 49.80873 12.00779 36827 ft 443 kts 146°
2026-05-06 20:21 49.78300 12.03281 36829 ft 434 kts 160°
2026-05-06 20:22 49.75456 12.04706 36833 ft 428 kts 171°
2026-05-06 20:22 49.72550 12.05723 36831 ft 429 kts 171°
2026-05-06 20:22 49.66719 12.07706 36828 ft 429 kts 171°
2026-05-06 20:23 49.60886 12.09646 36819 ft 429 kts 171°
2026-05-06 20:23 49.55058 12.11602 36817 ft 429 kts 171°
2026-05-06 20:24 49.49232 12.13551 36811 ft 428 kts 171°
2026-05-06 20:24 49.43399 12.15503 36809 ft 428 kts 172°
2026-05-06 20:25 49.37578 12.17448 36822 ft 428 kts 172°
2026-05-06 20:25 49.31761 12.19383 36828 ft 427 kts 172°
2026-05-06 20:26 49.25951 12.21307 36837 ft 427 kts 172°
2026-05-06 20:26 49.20153 12.23233 36624 ft 424 kts 172°
2026-05-06 20:27 49.17269 12.24192 35960 ft 423 kts 172°
2026-05-06 20:27 49.14399 12.25144 35316 ft 421 kts 172°
2026-05-06 20:27 49.11540 12.26087 34701 ft 419 kts 172°
2026-05-06 20:27 49.08697 12.27026 34077 ft 417 kts 172°
2026-05-06 20:28 49.05866 12.27959 33343 ft 416 kts 172°
2026-05-06 20:28 49.03034 12.28888 32454 ft 417 kts 171°
2026-05-06 20:28 49.00220 12.29804 31492 ft 420 kts 171°
2026-05-06 20:28 48.97339 12.30742 30469 ft 425 kts 170°
2026-05-06 20:29 48.94427 12.31693 29331 ft 430 kts 169°
2026-05-06 20:29 48.91485 12.32653 28061 ft 435 kts 169°
2026-05-06 20:29 48.88505 12.33626 26784 ft 441 kts 169°
2026-05-06 20:29 48.85490 12.34611 25487 ft 446 kts 169°
2026-05-06 20:30 48.82435 12.35608 24546 ft 452 kts 169°
2026-05-06 20:30 48.76244 12.37635 23952 ft 458 kts 169°
2026-05-06 20:30 48.73117 12.38654 23822 ft 458 kts 169°
2026-05-06 20:31 48.70002 12.39662 23866 ft 459 kts 169°
2026-05-06 20:31 48.66876 12.40668 23870 ft 459 kts 169°
2026-05-06 20:31 48.63758 12.41668 23868 ft 458 kts 169°
2026-05-06 20:31 48.60639 12.42672 23867 ft 458 kts 169°
2026-05-06 20:32 48.57521 12.43681 23872 ft 458 kts 169°
2026-05-06 20:32 48.54407 12.44692 23877 ft 458 kts 169°
2026-05-06 20:32 48.51328 12.45656 23874 ft 457 kts 172°
2026-05-06 20:32 48.48170 12.46011 23876 ft 454 kts 182°
2026-05-06 20:33 48.45038 12.45482 23883 ft 452 kts 193°
2026-05-06 20:33 48.42083 12.43920 23885 ft 451 kts 207°
2026-05-06 20:33 48.39376 12.41556 23893 ft 450 kts 211°
2026-05-06 20:33 48.36696 12.39120 23889 ft 450 kts 211°
2026-05-06 20:34 48.34022 12.36669 23893 ft 450 kts 211°
2026-05-06 20:34 48.31354 12.34215 23893 ft 450 kts 211°
2026-05-06 20:34 48.28689 12.31763 23898 ft 449 kts 211°
2026-05-06 20:34 48.26024 12.29318 23897 ft 449 kts 211°
2026-05-06 20:35 48.23349 12.26868 23900 ft 449 kts 211°
2026-05-06 20:35 48.20682 12.24429 23904 ft 449 kts 211°
2026-05-06 20:35 48.18014 12.21997 23902 ft 448 kts 211°
2026-05-06 20:35 48.15349 12.19560 23900 ft 448 kts 211°
2026-05-06 20:36 48.12697 12.17104 23900 ft 447 kts 211°
2026-05-06 20:36 48.10086 12.14685 23900 ft 447 kts 212°
2026-05-06 20:36 48.07443 12.12241 23900 ft 447 kts 211°
2026-05-06 20:36 48.04795 12.09794 23887 ft 446 kts 211°
2026-05-06 20:37 48.02182 12.07382 23248 ft 438 kts 211°
2026-05-06 20:37 47.99605 12.04997 22216 ft 433 kts 211°
2026-05-06 20:37 47.97060 12.02639 21292 ft 427 kts 211°
2026-05-06 20:37 47.94552 12.00316 20428 ft 422 kts 211°
2026-05-06 20:38 47.92075 11.98019 19597 ft 417 kts 211°
2026-05-06 20:38 47.89627 11.95747 18811 ft 412 kts 211°
2026-05-06 20:38 47.87203 11.93494 18004 ft 408 kts 212°
2026-05-06 20:38 47.84805 11.91275 17138 ft 404 kts 212°
2026-05-06 20:39 47.82424 11.89089 16341 ft 399 kts 211°
2026-05-06 20:39 47.80067 11.86942 15591 ft 395 kts 211°
2026-05-06 20:39 47.77757 11.84857 14890 ft 391 kts 211°
2026-05-06 20:39 47.75407 11.82751 14207 ft 388 kts 211°
2026-05-06 20:40 47.73033 11.81143 13959 ft 368 kts 198°
2026-05-06 20:40 47.70608 11.80452 13840 ft 343 kts 186°
2026-05-06 20:40 47.68302 11.80512 13717 ft 322 kts 176°
2026-05-06 20:40 47.66179 11.81167 13520 ft 304 kts 166°
2026-05-06 20:41 47.64209 11.82218 12978 ft 297 kts 163°
2026-05-06 20:41 47.62283 11.83294 12401 ft 294 kts 163°
2026-05-06 20:41 47.60382 11.84362 11780 ft 290 kts 162°
2026-05-06 20:41 47.58504 11.85417 11212 ft 287 kts 162°
2026-05-06 20:42 47.56670 11.86446 10553 ft 285 kts 162°
2026-05-06 20:42 47.54839 11.87471 10118 ft 278 kts 162°
2026-05-06 20:42 47.53034 11.88478 9923 ft 277 kts 162°
2026-05-06 20:42 47.51248 11.89472 9789 ft 269 kts 162°
2026-05-06 20:43 47.49552 11.90419 9647 ft 251 kts 162°
2026-05-06 20:43 47.47946 11.91316 9537 ft 244 kts 162°
2026-05-06 20:43 47.46365 11.92184 9501 ft 242 kts 164°
2026-05-06 20:43 47.44714 11.92520 9504 ft 239 kts 184°
2026-05-06 20:44 47.43097 11.92009 9511 ft 240 kts 203°
2026-05-06 20:44 47.41696 11.90714 9507 ft 239 kts 221°
2026-05-06 20:44 47.40654 11.88834 9508 ft 241 kts 234°
2026-05-06 20:44 47.39689 11.86773 9507 ft 241 kts 233°
2026-05-06 20:45 47.38743 11.84774 9502 ft 242 kts 233°
2026-05-06 20:45 47.37790 11.82738 9499 ft 239 kts 236°
2026-05-06 20:45 47.37127 11.80588 9206 ft 231 kts 246°
2026-05-06 20:45 47.36521 11.78383 8817 ft 230 kts 246°
2026-05-06 20:46 47.35930 11.76227 8465 ft 224 kts 246°
2026-05-06 20:46 47.35351 11.74130 8129 ft 218 kts 246°
2026-05-06 20:46 47.34786 11.72086 7795 ft 212 kts 246°
2026-05-06 20:46 47.34233 11.70094 7482 ft 207 kts 246°
2026-05-06 20:47 47.33692 11.68149 7175 ft 202 kts 245°
2026-05-06 20:47 47.33169 11.66273 6879 ft 195 kts 246°
2026-05-06 20:47 47.32661 11.64448 6564 ft 187 kts 246°
2026-05-06 20:47 47.32186 11.62741 6289 ft 176 kts 246°
2026-05-06 20:48 47.31738 11.61135 6037 ft 162 kts 246°
2026-05-06 20:48 47.31316 11.59626 5779 ft 158 kts 246°
2026-05-06 20:48 47.30899 11.58136 5532 ft 157 kts 246°
2026-05-06 20:48 47.30482 11.56647 5287 ft 157 kts 246°
2026-05-06 20:49 47.30062 11.55153 5044 ft 158 kts 245°
2026-05-06 20:49 47.29639 11.53646 4798 ft 159 kts 245°
2026-05-06 20:49 47.29216 11.52135 4563 ft 159 kts 245°
2026-05-06 20:49 47.28796 11.50634 4318 ft 158 kts 245°
2026-05-06 20:50 47.28380 11.49147 4087 ft 156 kts 246°
2026-05-06 20:50 47.27968 11.47675 3846 ft 155 kts 248°
2026-05-06 20:50 47.27559 11.46216 3599 ft 153 kts 248°
2026-05-06 20:50 47.27165 11.44781 3353 ft 149 kts 250°
2026-05-06 20:51 47.26974 11.43280 3094 ft 153 kts 262°
2026-05-06 20:51 47.26818 11.41740 2852 ft 150 kts 261°
2026-05-06 20:51 47.26670 11.40235 2650 ft 147 kts 262°
2026-05-06 20:51 47.26505 11.38783 2445 ft 140 kts 261°
2026-05-06 20:52 47.26342 11.37377 2246 ft 139 kts 259°
2026-05-06 20:52 47.26186 11.35951 1991 ft 143 kts 262°
2026-05-06 20:52 47.26037 11.34603 1897 ft 118 kts 261°
2026-05-06 20:52 47.25960 11.33848 1916 ft 40 kts 261°
2026-05-06 20:53 47.25900 11.33706 1918 ft 13 kts 152°
2026-05-06 20:53 47.25839 11.33820 1917 ft 14 kts 126°
2026-05-06 20:53 47.25791 11.33923 1916 ft 13 kts 119°
2026-05-06 20:53 47.25771 11.34055 1914 ft 15 kts 88°
2026-05-06 20:54 47.25783 11.34186 1903 ft 2 kts 75°
2026-05-06 20:54 47.25787 11.34208 1904 ft 1 kts 77°
2026-05-06 20:54 47.25794 11.34272 1901 ft 18 kts 82°
2026-05-06 20:54 47.25816 11.34469 1912 ft 20 kts 80°
2026-05-06 20:55 47.25837 11.34664 1900 ft 19 kts 81°
2026-05-06 20:55 47.25853 11.34825 1904 ft 9 kts 81°
2026-05-06 20:55 47.25815 11.34872 1900 ft 9 kts 176°
2026-05-06 20:55 47.25800 11.34873 1904 ft 0 kts 175°
2026-05-06 20:57 47.25826 11.35111 1904 ft 0 kts 171°